Time,TemperatureF,DewpointF,PressureIn,WindDirection,WindDirectionDegrees,WindSpeedMPH,WindSpeedGustMPH,Humidity,HourlyPrecipIn,Conditions,Clouds,dailyrainin,SoftwareType,DateUTC
2013-03-30 00:03:00,72.0,-99.9,30.07,WSW,240,2.0,2.0,-999,-99.99,,,-99.99,,2013-03-30 10:03:00,
2013-03-30 00:13:00,72.0,-99.9,30.07,West,280,3.0,4.0,-999,-99.99,,,-99.99,,2013-03-30 10:13:00,
2013-03-30 00:23:00,72.0,-99.9,30.06,West,274,3.0,4.0,-999,-99.99,,,-99.99,,2013-03-30 10:23:00,
2013-03-30 00:33:00,72.0,-99.9,30.06,SE,130,1.0,2.0,-999,-99.99,,,-99.99,,2013-03-30 10:33:00,
2013-03-30 00:42:00,72.0,-99.9,30.05,South,173,2.0,4.0,-999,-99.99,,,-99.99,,2013-03-30 10:42:00,
2013-03-30 00:53:00,72.0,-99.9,30.05,South,174,1.0,3.0,-999,-99.99,,,-99.99,,2013-03-30 10:53:00,
2013-03-30 01:04:00,72.0,-99.9,30.05,SSW,213,2.0,3.0,-999,-99.99,,,-99.99,,2013-03-30 11:04:00,
2013-03-30 01:12:00,72.0,-99.9,30.05,West,274,2.0,4.0,-999,-99.99,,,-99.99,,2013-03-30 11:12:00,
2013-03-30 01:23:00,72.0,-99.9,30.04,NW,317,4.0,5.0,-999,-99.99,,,-99.99,,2013-03-30 11:23:00,
2013-03-30 01:33:00,72.0,-99.9,30.04,West,280,3.0,5.0,-999,-99.99,,,-99.99,,2013-03-30 11:33:00,
2013-03-30 01:43:00,72.0,-99.9,30.04,NW,309,4.0,5.0,-999,-99.99,,,-99.99,,2013-03-30 11:43:00,
2013-03-30 01:53:00,72.0,-99.9,30.04,NNW,348,4.0,6.0,-999,-99.99,,,-99.99,,2013-03-30 11:53:00,
2013-03-30 02:03:00,72.0,-99.9,30.04,North,6,2.0,3.0,-999,-99.99,,,-99.99,,2013-03-30 12:03:00,
2013-03-30 02:13:00,72.0,-99.9,30.04,NE,45,2.0,2.0,-999,-99.99,,,-99.99,,2013-03-30 12:13:00,
2013-03-30 02:23:00,72.0,-99.9,30.04,SSW,193,2.0,2.0,-999,-99.99,,,-99.99,,2013-03-30 12:23:00,
2013-03-30 02:33:00,71.0,-99.9,30.04,West,264,3.0,4.0,-999,-99.99,,,-99.99,,2013-03-30 12:33:00,
2013-03-30 02:43:00,71.0,-99.9,30.03,WNW,300,1.0,2.0,-999,-99.99,,,-99.99,,2013-03-30 12:43:00,
2013-03-30 02:53:00,71.0,-99.9,30.03,WNW,301,2.0,3.0,-999,-99.99,,,-99.99,,2013-03-30 12:53:00,
2013-03-30 03:02:00,71.0,-99.9,30.03,NW,314,2.0,2.0,-999,-99.99,,,-99.99,,2013-03-30 13:02:00,
2013-03-30 03:12:00,71.0,-99.9,30.02,NNW,346,1.0,2.0,-999,-99.99,,,-99.99,,2013-03-30 13:12:00,
2013-03-30 03:23:00,71.0,-99.9,30.02,NNW,339,2.0,3.0,-999,-99.99,,,-99.99,,2013-03-30 13:23:00,
2013-03-30 03:32:00,71.0,-99.9,30.01,NNW,343,3.0,4.0,-999,-99.99,,,-99.99,,2013-03-30 13:32:00,
2013-03-30 03:43:00,71.0,-99.9,30.01,North,352,2.0,4.0,-999,-99.99,,,-99.99,,2013-03-30 13:43:00,
2013-03-30 03:53:00,71.0,-99.9,30.01,ESE,102,2.0,2.0,-999,-99.99,,,-99.99,,2013-03-30 13:53:00,
2013-03-30 04:03:00,71.0,-99.9,30.01,North,-999,-999.0,-999.0,-999,-99.99,,,-99.99,,2013-03-30 14:03:00,
2013-03-30 04:12:00,71.0,-99.9,30.01,NW,322,3.0,4.0,-999,-99.99,,,-99.99,,2013-03-30 14:12:00,
2013-03-30 04:23:00,71.0,-99.9,30.01,NW,316,3.0,4.0,-999,-99.99,,,-99.99,,2013-03-30 14:23:00,
2013-03-30 04:33:00,71.0,-99.9,30.01,NNW,346,1.0,3.0,-999,-99.99,,,-99.99,,2013-03-30 14:33:00,
2013-03-30 04:43:00,71.0,-99.9,30.00,NNE,16,-999.0,1.0,-999,-99.99,,,-99.99,,2013-03-30 14:43:00,
2013-03-30 04:53:00,71.0,-99.9,30.00,ENE,58,1.0,2.0,-999,-99.99,,,-99.99,,2013-03-30 14:53:00,
2013-03-30 05:03:00,71.0,-99.9,30.00,North,357,2.0,4.0,-999,-99.99,,,-99.99,,2013-03-30 15:03:00,
2013-03-30 05:12:00,71.0,-99.9,30.00,East,86,-999.0,0.0,-999,-99.99,,,-99.99,,2013-03-30 15:12:00,
2013-03-30 05:23:00,71.0,-99.9,30.00,SSE,151,-999.0,1.0,-999,-99.99,,,-99.99,,2013-03-30 15:23:00,
2013-03-30 05:34:00,71.0,-99.9,30.00,SSE,155,-999.0,1.0,-999,-99.99,,,-99.99,,2013-03-30 15:34:00,
2013-03-30 05:43:00,71.0,-99.9,30.00,NE,38,1.0,1.0,-999,-99.99,,,-99.99,,2013-03-30 15:43:00,
2013-03-30 05:53:00,71.0,-99.9,30.01,NNW,347,1.0,3.0,-999,-99.99,,,-99.99,,2013-03-30 15:53:00,
2013-03-30 06:04:00,71.0,-99.9,30.01,North,355,4.0,5.0,-999,-99.99,,,-99.99,,2013-03-30 16:04:00,
2013-03-30 06:13:00,71.0,-99.9,30.01,NNW,335,2.0,5.0,-999,-99.99,,,-99.99,,2013-03-30 16:13:00,
2013-03-30 06:23:00,71.0,-99.9,30.02,NNW,335,4.0,5.0,-999,-99.99,,,-99.99,,2013-03-30 16:23:00,
2013-03-30 06:33:00,71.0,-99.9,30.03,NNW,346,2.0,5.0,-999,-99.99,,,-99.99,,2013-03-30 16:33:00,
2013-03-30 06:43:00,71.0,-99.9,30.03,North,357,2.0,4.0,-999,-99.99,,,-99.99,,2013-03-30 16:43:00,
2013-03-30 06:53:00,71.0,-99.9,30.04,North,10,2.0,4.0,-999,-99.99,,,-99.99,,2013-03-30 16:53:00,
2013-03-30 07:02:00,71.0,-99.9,30.04,North,354,2.0,2.0,-999,-99.99,,,-99.99,,2013-03-30 17:02:00,
2013-03-30 07:13:00,71.0,-99.9,30.04,NW,322,2.0,2.0,-999,-99.99,,,-99.99,,2013-03-30 17:13:00,
2013-03-30 07:23:00,71.0,-99.9,30.04,NNW,332,3.0,3.0,-999,-99.99,,,-99.99,,2013-03-30 17:23:00,
2013-03-30 07:33:00,71.0,-99.9,30.05,NW,326,2.0,4.0,-999,-99.99,,,-99.99,,2013-03-30 17:33:00,
2013-03-30 07:43:00,71.0,-99.9,30.05,NW,324,2.0,3.0,-999,-99.99,,,-99.99,,2013-03-30 17:43:00,
2013-03-30 07:53:00,71.0,-99.9,30.06,NW,318,3.0,4.0,-999,-99.99,,,-99.99,,2013-03-30 17:53:00,
2013-03-30 08:03:00,71.0,-99.9,30.06,North,356,2.0,4.0,-999,-99.99,,,-99.99,,2013-03-30 18:03:00,
2013-03-30 08:13:00,71.0,-99.9,30.06,North,2,2.0,3.0,-999,-99.99,,,-99.99,,2013-03-30 18:13:00,
2013-03-30 08:22:00,72.0,-99.9,30.07,North,7,1.0,2.0,-999,-99.99,,,-99.99,,2013-03-30 18:22:00,
2013-03-30 08:33:00,74.0,-99.9,30.07,NNE,23,-999.0,2.0,-999,-99.99,,,-99.99,,2013-03-30 18:33:00,
2013-03-30 08:43:00,74.0,-99.9,30.07,South,181,1.0,2.0,-999,-99.99,,,-99.99,,2013-03-30 18:43:00,
2013-03-30 08:53:00,73.0,-99.9,30.07,West,271,2.0,3.0,-999,-99.99,,,-99.99,,2013-03-30 18:53:00,
2013-03-30 09:03:00,73.0,-99.9,30.07,West,279,1.0,1.0,-999,-99.99,,,-99.99,,2013-03-30 19:03:00,
2013-03-30 09:13:00,74.0,-99.9,30.07,WNW,289,3.0,3.0,-999,-99.99,,,-99.99,,2013-03-30 19:13:00,
2013-03-30 09:22:00,74.0,-99.9,30.07,NW,308,1.0,3.0,-999,-99.99,,,-99.99,,2013-03-30 19:22:00,
2013-03-30 09:32:00,74.0,-99.9,30.08,WNW,285,5.0,6.0,-999,-99.99,,,-99.99,,2013-03-30 19:32:00,
2013-03-30 09:42:00,75.0,-99.9,30.08,North,-999,2.0,7.0,-999,-99.99,,,-99.99,,2013-03-30 19:42:00,
2013-03-30 09:53:00,75.0,-99.9,30.07,NW,307,4.0,7.0,-999,-99.99,,,-99.99,,2013-03-30 19:53:00,
2013-03-30 10:02:00,75.0,-99.9,30.07,NW,313,7.0,9.0,-999,-99.99,,,-99.99,,2013-03-30 20:02:00,
2013-03-30 10:12:00,75.0,-99.9,30.07,NW,326,7.0,11.0,-999,-99.99,,,-99.99,,2013-03-30 20:12:00,
2013-03-30 10:22:00,76.0,-99.9,30.07,NW,314,9.0,11.0,-999,-99.99,,,-99.99,,2013-03-30 20:22:00,
2013-03-30 10:33:00,76.0,-99.9,30.07,WNW,291,8.0,11.0,-999,-99.99,,,-99.99,,2013-03-30 20:33:00,
2013-03-30 10:43:00,77.0,-99.9,30.06,North,356,6.0,9.0,-999,-99.99,,,-99.99,,2013-03-30 20:43:00,
2013-03-30 10:53:00,77.0,-99.9,30.06,South,185,1.0,4.0,-999,-99.99,,,-99.99,,2013-03-30 20:53:00,
2013-03-30 11:03:00,76.0,-99.9,30.06,ESE,117,4.0,8.0,-999,-99.99,,,-99.99,,2013-03-30 21:03:00,
2013-03-30 11:13:00,75.0,-99.9,30.06,SSW,207,7.0,11.0,-999,-99.99,,,-99.99,,2013-03-30 21:13:00,
2013-03-30 11:23:00,76.0,-99.9,30.06,SSW,201,6.0,9.0,-999,-99.99,,,-99.99,,2013-03-30 21:23:00,
2013-03-30 11:34:00,75.0,-99.9,30.06,SSW,195,7.0,9.0,-999,-99.99,,,-99.99,,2013-03-30 21:34:00,
2013-03-30 11:43:00,76.0,-99.9,30.06,South,174,3.0,9.0,-999,-99.99,,,-99.99,,2013-03-30 21:43:00,
2013-03-30 11:53:00,75.0,-99.9,30.06,South,174,7.0,10.0,-999,-99.99,,,-99.99,,2013-03-30 21:53:00,
2013-03-30 12:03:00,75.0,-99.9,30.06,SSE,164,5.0,11.0,-999,-99.99,,,-99.99,,2013-03-30 22:03:00,
2013-03-30 12:13:00,75.0,-99.9,30.06,SE,132,5.0,9.0,-999,-99.99,,,-99.99,,2013-03-30 22:13:00,
2013-03-30 12:24:00,76.0,-99.9,30.06,East,98,5.0,8.0,-999,-99.99,,,-99.99,,2013-03-30 22:24:00,
2013-03-30 12:33:00,74.0,-99.9,30.05,NNW,343,2.0,6.0,-999,-99.99,,,-99.99,,2013-03-30 22:33:00,
2013-03-30 12:44:00,73.0,-99.9,30.05,North,2,3.0,10.0,-999,-99.99,,,-99.99,,2013-03-30 22:44:00,
2013-03-30 12:54:00,72.0,-99.9,30.05,West,262,1.0,4.0,-999,-99.99,,,-99.99,,2013-03-30 22:54:00,
2013-03-30 13:03:00,72.0,-99.9,30.05,NE,37,4.0,5.0,-999,-99.99,,,-99.99,,2013-03-30 23:03:00,
2013-03-30 13:13:00,71.0,-99.9,30.05,ENE,68,6.0,9.0,-999,-99.99,,,-99.99,,2013-03-30 23:13:00,
2013-03-30 13:22:00,70.0,-99.9,30.05,ENE,71,4.0,7.0,-999,-99.99,,,-99.99,,2013-03-30 23:22:00,
2013-03-30 13:33:00,70.0,-99.9,30.04,SE,132,1.0,4.0,-999,-99.99,,,-99.99,,2013-03-30 23:33:00,
2013-03-30 13:43:00,71.0,-99.9,30.04,NE,47,3.0,5.0,-999,-99.99,,,-99.99,,2013-03-30 23:43:00,
2013-03-30 13:53:00,72.0,-99.9,30.03,NE,41,2.0,4.0,-999,-99.99,,,-99.99,,2013-03-30 23:53:00,
2013-03-30 14:03:00,74.0,-99.9,30.03,ENE,68,3.0,7.0,-999,-99.99,,,-99.99,,2013-03-31 00:03:00,
2013-03-30 14:12:00,74.0,-99.9,30.02,ESE,110,5.0,8.0,-999,-99.99,,,-99.99,,2013-03-31 00:12:00,
2013-03-30 14:23:00,75.0,-99.9,30.02,East,91,3.0,8.0,-999,-99.99,,,-99.99,,2013-03-31 00:23:00,
2013-03-30 14:33:00,75.0,-99.9,30.02,ENE,68,6.0,11.0,-999,-99.99,,,-99.99,,2013-03-31 00:33:00,
2013-03-30 14:43:00,75.0,-99.9,30.01,ENE,68,7.0,11.0,-999,-99.99,,,-99.99,,2013-03-31 00:43:00,
2013-03-30 14:53:00,75.0,-99.9,30.01,ENE,60,7.0,12.0,-999,-99.99,,,-99.99,,2013-03-31 00:53:00,
2013-03-30 15:02:00,76.0,-99.9,30.00,East,88,3.0,10.0,-999,-99.99,,,-99.99,,2013-03-31 01:02:00,
2013-03-30 15:12:00,75.0,-99.9,29.99,ENE,60,3.0,14.0,-999,-99.99,,,-99.99,,2013-03-31 01:12:00,
2013-03-30 15:22:00,75.0,-99.9,29.99,NE,54,6.0,13.0,-999,-99.99,,,-99.99,,2013-03-31 01:22:00,
2013-03-30 15:32:00,75.0,-99.9,29.99,NNE,27,3.0,13.0,-999,-99.99,,,-99.99,,2013-03-31 01:32:00,
2013-03-30 15:43:00,74.0,-99.9,29.99,ENE,61,5.0,11.0,-999,-99.99,,,-99.99,,2013-03-31 01:43:00,
2013-03-30 15:53:00,74.0,-99.9,29.99,NE,54,7.0,11.0,-999,-99.99,,,-99.99,,2013-03-31 01:53:00,
2013-03-30 16:02:00,74.0,-99.9,29.98,ENE,67,7.0,9.0,-999,-99.99,,,-99.99,,2013-03-31 02:02:00,
2013-03-30 16:13:00,74.0,-99.9,29.99,ENE,67,9.0,13.0,-999,-99.99,,,-99.99,,2013-03-31 02:13:00,
2013-03-30 16:22:00,74.0,-99.9,29.99,ENE,57,5.0,8.0,-999,-99.99,,,-99.99,,2013-03-31 02:22:00,
2013-03-30 16:33:00,75.0,-99.9,29.98,ENE,62,4.0,11.0,-999,-99.99,,,-99.99,,2013-03-31 02:33:00,
2013-03-30 16:43:00,74.0,-99.9,29.98,NNE,23,3.0,9.0,-999,-99.99,,,-99.99,,2013-03-31 02:43:00,
2013-03-30 16:53:00,74.0,-99.9,29.98,NE,47,5.0,9.0,-999,-99.99,,,-99.99,,2013-03-31 02:53:00,
2013-03-30 17:02:00,74.0,-99.9,29.98,ENE,70,3.0,9.0,-999,-99.99,,,-99.99,,2013-03-31 03:02:00,
2013-03-30 17:13:00,75.0,-99.9,29.98,NNW,344,3.0,7.0,-999,-99.99,,,-99.99,,2013-03-31 03:13:00,
2013-03-30 17:22:00,75.0,-99.9,29.98,NE,44,5.0,12.0,-999,-99.99,,,-99.99,,2013-03-31 03:22:00,
2013-03-30 17:33:00,75.0,-99.9,29.98,NNW,346,7.0,11.0,-999,-99.99,,,-99.99,,2013-03-31 03:33:00,
2013-03-30 17:44:00,75.0,-99.9,29.98,NE,45,3.0,10.0,-999,-99.99,,,-99.99,,2013-03-31 03:44:00,
2013-03-30 17:54:00,75.0,-99.9,29.98,ENE,58,5.0,11.0,-999,-99.99,,,-99.99,,2013-03-31 03:54:00,
2013-03-30 18:03:00,75.0,-99.9,29.98,ENE,72,4.0,8.0,-999,-99.99,,,-99.99,,2013-03-31 04:03:00,
2013-03-30 18:13:00,74.0,-99.9,29.99,NE,51,4.0,9.0,-999,-99.99,,,-99.99,,2013-03-31 04:13:00,
2013-03-30 18:23:00,74.0,-99.9,29.99,NNE,21,3.0,11.0,-999,-99.99,,,-99.99,,2013-03-31 04:23:00,
2013-03-30 18:33:00,74.0,-99.9,29.99,NE,54,3.0,7.0,-999,-99.99,,,-99.99,,2013-03-31 04:33:00,
2013-03-30 18:43:00,73.0,-99.9,29.99,NE,52,4.0,9.0,-999,-99.99,,,-99.99,,2013-03-31 04:43:00,
2013-03-30 18:53:00,73.0,-99.9,30.00,ENE,71,5.0,10.0,-999,-99.99,,,-99.99,,2013-03-31 04:53:00,
2013-03-30 19:02:00,73.0,-99.9,30.00,ENE,75,4.0,7.0,-999,-99.99,,,-99.99,,2013-03-31 05:02:00,
2013-03-30 19:13:00,73.0,-99.9,30.00,ENE,66,6.0,10.0,-999,-99.99,,,-99.99,,2013-03-31 05:13:00,
2013-03-30 19:22:00,72.0,-99.9,30.01,NNE,33,3.0,9.0,-999,-99.99,,,-99.99,,2013-03-31 05:22:00,
2013-03-30 19:32:00,72.0,-99.9,30.01,NE,56,4.0,7.0,-999,-99.99,,,-99.99,,2013-03-31 05:32:00,
2013-03-30 19:42:00,72.0,-99.9,30.02,ENE,70,4.0,7.0,-999,-99.99,,,-99.99,,2013-03-31 05:42:00,
2013-03-30 19:53:00,72.0,-99.9,30.02,ENE,67,7.0,9.0,-999,-99.99,,,-99.99,,2013-03-31 05:53:00,
2013-03-30 20:02:00,71.0,-99.9,30.02,ENE,63,4.0,9.0,-999,-99.99,,,-99.99,,2013-03-31 06:02:00,
2013-03-30 20:12:00,71.0,-99.9,30.03,ENE,76,2.0,4.0,-999,-99.99,,,-99.99,,2013-03-31 06:12:00,
2013-03-30 20:23:00,71.0,-99.9,30.03,ENE,59,2.0,7.0,-999,-99.99,,,-99.99,,2013-03-31 06:23:00,
2013-03-30 20:33:00,71.0,-99.9,30.03,ENE,58,1.0,3.0,-999,-99.99,,,-99.99,,2013-03-31 06:33:00,
2013-03-30 20:42:00,71.0,-99.9,30.04,NE,40,2.0,4.0,-999,-99.99,,,-99.99,,2013-03-31 06:42:00,
2013-03-30 20:53:00,71.0,-99.9,30.04,ESE,108,2.0,5.0,-999,-99.99,,,-99.99,,2013-03-31 06:53:00,
2013-03-30 21:02:00,71.0,-99.9,30.04,SW,217,1.0,2.0,-999,-99.99,,,-99.99,,2013-03-31 07:02:00,
2013-03-30 21:12:00,71.0,-99.9,30.04,North,355,-999.0,5.0,-999,-99.99,,,-99.99,,2013-03-31 07:12:00,
2013-03-30 21:22:00,71.0,-99.9,30.05,WNW,303,3.0,4.0,-999,-99.99,,,-99.99,,2013-03-31 07:22:00,
2013-03-30 21:33:00,71.0,-99.9,30.05,ENE,69,2.0,4.0,-999,-99.99,,,-99.99,,2013-03-31 07:33:00,
2013-03-30 21:43:00,71.0,-99.9,30.05,NNW,348,3.0,7.0,-999,-99.99,,,-99.99,,2013-03-31 07:43:00,
2013-03-30 21:53:00,71.0,-99.9,30.05,NE,45,2.0,6.0,-999,-99.99,,,-99.99,,2013-03-31 07:53:00,
2013-03-30 22:02:00,71.0,-99.9,30.06,NNW,338,2.0,7.0,-999,-99.99,,,-99.99,,2013-03-31 08:02:00,
2013-03-30 22:12:00,71.0,-99.9,30.06,NNW,329,3.0,6.0,-999,-99.99,,,-99.99,,2013-03-31 08:12:00,
2013-03-30 22:22:00,71.0,-99.9,30.06,NNW,333,4.0,6.0,-999,-99.99,,,-99.99,,2013-03-31 08:22:00,
2013-03-30 22:32:00,71.0,-99.9,30.06,NNW,337,4.0,7.0,-999,-99.99,,,-99.99,,2013-03-31 08:32:00,
2013-03-30 22:43:00,71.0,-99.9,30.06,NNW,330,4.0,5.0,-999,-99.99,,,-99.99,,2013-03-31 08:43:00,
2013-03-30 22:52:00,71.0,-99.9,30.06,NW,325,4.0,6.0,-999,-99.99,,,-99.99,,2013-03-31 08:52:00,
2013-03-30 23:02:00,71.0,-99.9,30.06,NNW,328,6.0,6.0,-999,-99.99,,,-99.99,,2013-03-31 09:02:00,
2013-03-30 23:12:00,71.0,-99.9,30.06,NW,323,5.0,7.0,-999,-99.99,,,-99.99,,2013-03-31 09:12:00,
2013-03-30 23:22:00,70.0,-99.9,30.06,NNW,331,7.0,8.0,-999,-99.99,,,-99.99,,2013-03-31 09:22:00,
2013-03-30 23:33:00,70.0,-99.9,30.06,NNW,338,3.0,6.0,-999,-99.99,,,-99.99,,2013-03-31 09:33:00,
2013-03-30 23:43:00,70.0,-99.9,30.06,NW,326,4.0,6.0,-999,-99.99,,,-99.99,,2013-03-31 09:43:00,
2013-03-30 23:53:00,70.0,-99.9,30.05,NNW,336,3.0,5.0,-999,-99.99,,,-99.99,,2013-03-31 09:53:00,